Concordia, KS

9:32 AM CDT on October 17, 2017 (GMT -0500)
Blosser Municipal

Weather History for KCNK - April, 2014

Change the Weather History Date:

Thursday, April 17, 2014

  Actual Average Record
Temperature  
Mean Temperature 45 °F 54 °F  
Max Temperature 56 °F 66 °F 90 °F (1926)
Min Temperature 33 °F 42 °F 21 °F (1907)
Degree Days  
Heating Degree Days 20 12  
Month to date heating degree days 264 244  
Since 1 July heating degree days 5542 5135  
Cooling Degree Days 0 1  
Month to date cooling degree days 8 2  
Year to date cooling degree days 8 3  
Moisture  
Dew Point 27 °F    
Average Humidity 54    
Maximum Humidity 75    
Minimum Humidity 32    
Precipitation  
Precipitation 0.00 in 0.08 in 2.12 in (2013)
Month to date precipitation 0.56 1.29  
Year to date precipitation 1.98 4.67  
Snow  
Snow 0.00 in 0.00 in T in (1922)
Month to date snowfall T 0.4  
Year to date snowfall 16.9 13.6  
Since 1 July snowfall 23.2 20.1  
Snow Depth 0.00 in    
Sea Level Pressure  
Sea Level Pressure 30.27 in    
Wind  
Wind Speed 8 mph (NE)    
Max Wind Speed 20 mph    
Max Gust Speed 26 mph    
Visibility 10 miles    
Events      
T = Trace of Precipitation, MM = Missing Value Source: NWS Daily Summary

Daily Weather History Graph

Daily Weather History Graph

Search for Another Location

Airport or City:

Trip Planner

Search our weather history database for the weather conditions in past years. The results will help you decide how hot, cold, wet, or windy it might be!

Date:

Astronomy

Apr. 17, 2014 Rise Set
Actual Time 6:50 AM CDT 8:10 PM CDT
Civil Twilight 6:22 AM CDT 8:38 PM CDT
Nautical Twilight 5:48 AM CDT 9:12 PM CDT
Astronomical Twilight 5:13 AM CDT 9:47 PM CDT
Moon 10:57 PM CDT 8:23 AM CDT
Length of Visible Light 14h 16m
Length of Day
13h 20m
Waning Gibbous, 93% of the Moon is Illuminated
Apr 17
Waning Gibbous
Apr 22
Last Quarter
Apr 29
New
May 6
First Quarter
May 14
Full

Hourly Weather History & Observations

Time (CDT) Temp. Windchill Dew Point Humidity Pressure Visibility Wind Dir Wind Speed Gust Speed Precip Events Conditions
12:55 AM 37.0 °F 26.7 °F 28.0 °F 70% 30.16 in 10.0 mi North 19.6 mph - N/A   Clear
1:55 AM 36.0 °F 26.0 °F 27.0 °F 70% 30.17 in 10.0 mi North 17.3 mph 23.0 mph N/A   Clear
2:55 AM 36.0 °F 28.0 °F 28.0 °F 73% 30.20 in 10.0 mi NNE 11.5 mph - N/A   Mostly Cloudy
3:55 AM 35.1 °F 25.2 °F 27.0 °F 72% 30.23 in 10.0 mi North 16.1 mph 21.9 mph N/A   Overcast
4:55 AM 34.0 °F 25.5 °F 26.1 °F 73% 30.24 in 10.0 mi North 11.5 mph - N/A   Overcast
5:55 AM 34.0 °F 25.5 °F 26.1 °F 73% 30.25 in 10.0 mi North 11.5 mph - N/A   Overcast
6:55 AM 33.1 °F 25.5 °F 26.1 °F 75% 30.27 in 10.0 mi NNE 9.2 mph - N/A   Overcast
7:55 AM 33.1 °F 25.5 °F 26.1 °F 75% 30.32 in 10.0 mi NNE 9.2 mph - N/A   Overcast
8:55 AM 34.0 °F 27.2 °F 26.1 °F 73% 30.33 in 10.0 mi North 8.1 mph - N/A   Overcast
9:37 AM 36.0 °F 28.0 °F 27.0 °F 70% 30.31 in 10.0 mi NNE 11.5 mph - N/A   Scattered Clouds
9:55 AM 37.0 °F 29.3 °F 27.0 °F 67% 30.34 in 10.0 mi North 11.5 mph - N/A   Partly Cloudy
10:55 AM 39.2 °F 32.5 °F 26.6 °F 61% 30.33 in 10.0 mi NNE 10.4 mph - N/A   Clear
11:55 AM 43.0 °F 41.3 °F 27.0 °F 53% 30.35 in 10.0 mi Variable 3.5 mph - N/A   Clear
12:55 PM 46.0 °F 43.9 °F 28.0 °F 50% 30.32 in 10.0 mi WNW 4.6 mph - N/A   Clear
1:55 PM 48.9 °F - 28.9 °F 46% 30.30 in 10.0 mi East 3.5 mph - N/A   Clear
2:55 PM 52.0 °F - 28.0 °F 40% 30.29 in 10.0 mi Variable 3.5 mph - N/A   Clear
3:55 PM 54.0 °F - 28.9 °F 38% 30.26 in 10.0 mi ENE 5.8 mph - N/A   Clear
4:55 PM 55.0 °F - 28.0 °F 35% 30.25 in 10.0 mi Variable 4.6 mph - N/A   Clear
5:55 PM 55.0 °F - 28.0 °F 35% 30.24 in 10.0 mi Variable 3.5 mph - N/A   Clear
6:55 PM 55.0 °F - 27.0 °F 34% 30.24 in 10.0 mi ENE 3.5 mph - N/A   Clear
7:55 PM 51.1 °F - 27.0 °F 39% 30.25 in 10.0 mi ESE 4.6 mph - N/A   Clear
8:55 PM 43.0 °F 39.5 °F 27.0 °F 53% 30.26 in 10.0 mi SSE 5.8 mph - N/A   Clear
9:55 PM 42.1 °F 37.7 °F 28.0 °F 58% 30.27 in 10.0 mi SSE 6.9 mph - N/A   Clear
10:55 PM 43.0 °F 37.2 °F 28.9 °F 58% 30.27 in 10.0 mi South 10.4 mph - N/A   Clear
11:55 PM 44.1 °F 38.1 °F 30.0 °F 58% 30.27 in 8.0 mi South 11.5 mph - N/A   Clear